Location: Sternwarte-Kraichtal
(49.1689°N, 8.6996°E)
Time: 19:55:51
(UTC+02:00)

Vanguard 2 Rocket - Pass Details

Date: 29 May 2022
Orbit: 553 x 3323 km, 32.9° (Epoch: 02 July)

Event Time Altitude Azimuth Distance (km) Brightness Sun altitude
Rises 15:27:14 0° 246° (WSW) 7,306 12.1 53.1°
Reaches altitude 10° 15:32:38 10° 241° (WSW) 6,247 12.0 52.4°
Maximum altitude 15:49:57 42° 180° (S) 3,505 10.8 50.0°
Drops below altitude 10° 16:02:01 10° 115° (ESE) 4,437 10.3 48.2°
Sets 16:05:07 0° 108° (ESE) 5,100 10.4 47.8°
